Location: Unspecified
(49.2170°N, 0.0000°E)
Time: 07:26:21
(UTC+00:00)

A-11 Canister half - Pass Details

Date: 21 June 2019
Orbit: 1526 x 1683 km, 47.3° (Epoch: 21 July)

Event Time Altitude Azimuth Distance (km) Brightness Sun altitude
Rises 11:23:33 0° 289° (WNW) 4,681 11.4 63.1°
Reaches altitude 10° 11:26:59 10° 280° (W) 3,697 11.0 63.3°
Maximum altitude 11:34:49 32° 222° (SW) 2,398 10.8 63.7°
Drops below altitude 10° 11:42:46 10° 164° (SSE) 3,740 11.6 64.0°
Sets 11:46:17 0° 155° (SSE) 4,742 11.9 64.0°
